Weather History for Chicopee, MA

Change the Weather History Date:

Sunday, December 9, 2012

  Actual Average Record
Temperature  
Mean Temperature 38 °F -  
Max Temperature 43 °F 38 °F 53 °F (2008)
Min Temperature 32 °F 23 °F 5 °F (2000)
Degree Days  
Heating Degree Days 28    
Moisture  
Dew Point 37 °F    
Average Humidity 94    
Maximum Humidity 100    
Minimum Humidity 64    
Precipitation  
Precipitation 0.20 in - - ()
Sea Level Pressure  
Sea Level Pressure 30.13 in    
Wind  
Wind Speed 1 mph (North)    
Max Wind Speed 6 mph    
Max Gust Speed -    
Visibility 5 miles    
Events Fog , Rain    
Averages and records for this station are not official NWS values.
T = Trace of Precipitation, MM = Missing Value Source: NWS Daily Summary

Daily Weather History Graph

Daily Weather History Graph

Search for Another Location

Airport:

Trip Planner

Search our weather history database for the weather conditions in past years. The results will help you decide how hot, cold, wet, or windy it might be!

Date:

Astronomy

Dec. 09, 2012 Rise Set
Actual Time 7:07 AM EST 4:17 PM EST
Civil Twilight 6:35 AM EST 4:49 PM EST
Nautical Twilight 6:00 AM EST 5:24 PM EST
Astronomical Twilight 5:26 AM EST 5:58 PM EST
Moon 2:33 AM EST (12/9) 1:25 PM EST (12/9)
Length of Visible Light 10h 13m
Length of Day
9h 10m
Waning Crescent, 19% of the Moon is Illuminated
Dec 9
Waning Crescent
Dec 13
New
Dec 20
First Quarter
Dec 28
Full
Jan 4
Last Quarter

Hourly Weather History & Observations

Time (EST) Temp. Windchill Dew Point Humidity Pressure Visibility Wind Dir Wind Speed Gust Speed Precip Events Conditions
12:31 AM 42.8 °F - 42.8 °F 100% 29.99 in 0.2 mi Calm Calm - N/A Fog Fog
12:46 AM 42.8 °F 41.1 °F 41.0 °F 93% 30.00 in 0.2 mi NNW 3.5 mph - N/A Fog Fog
12:55 AM 42.1 °F 40.2 °F 41.5 °F 98% 30.01 in 0.2 mi NW 3.5 mph - N/A Fog Fog
1:01 AM 42.8 °F - 41.0 °F 93% 30.01 in 0.2 mi Calm Calm - N/A Fog Fog
1:07 AM 41.0 °F - 41.0 °F 100% 30.01 in 0.2 mi Calm Calm - N/A Fog Fog
1:15 AM 41.0 °F - 41.0 °F 100% 30.02 in 0.2 mi Calm Calm - N/A Fog Fog
1:18 AM 41.0 °F - 41.0 °F 100% 30.02 in 0.2 mi Calm Calm - N/A Fog Fog
1:21 AM 41.0 °F - 41.0 °F 100% 30.02 in 0.2 mi Calm Calm - N/A Fog Fog
1:34 AM 41.0 °F - 41.0 °F 100% 30.03 in 0.2 mi Calm Calm - N/A Fog Fog
1:55 AM 41.0 °F - 40.5 °F 98% 30.04 in 0.2 mi Calm Calm - N/A Fog Fog
2:17 AM 41.0 °F - 39.2 °F 93% 30.06 in 0.2 mi Calm Calm - N/A Fog Fog
2:22 AM 41.0 °F - 39.2 °F 93% 30.06 in 0.2 mi Calm Calm - N/A Fog Fog
2:43 AM 39.2 °F - 39.2 °F 100% 30.06 in 0.2 mi Calm Calm - N/A Fog Fog
2:55 AM 39.4 °F - 38.8 °F 98% 30.07 in 0.2 mi Calm Calm - N/A Fog Fog
3:14 AM 37.4 °F - 37.4 °F 100% 30.08 in 0.2 mi Calm Calm - N/A Fog Fog
3:19 AM 37.4 °F 34.9 °F 37.4 °F 100% 30.08 in 0.2 mi ESE 3.5 mph - N/A Fog Fog
3:20 AM 37.4 °F - 37.4 °F 100% 30.08 in 0.2 mi Calm Calm - N/A Fog Fog
3:27 AM 37.4 °F - 35.6 °F 93% 30.08 in 0.5 mi Calm Calm - N/A Fog Fog
3:29 AM 37.4 °F - 37.4 °F 100% 30.08 in 0.5 mi Calm Calm - N/A Fog Fog
3:30 AM 37.4 °F - 37.4 °F 100% 30.08 in 0.5 mi Calm Calm - N/A Fog Fog
3:34 AM 37.4 °F - 37.4 °F 100% 30.08 in 0.8 mi Calm Calm - N/A   Clear
3:37 AM 37.4 °F - 37.4 °F 100% 30.08 in 1.0 mi Calm Calm - N/A   Clear
3:38 AM 37.4 °F - 37.4 °F 100% 30.08 in 1.0 mi Calm Calm - N/A   Clear
3:45 AM 37.4 °F 33.8 °F 37.4 °F 100% 30.08 in 1.2 mi WNW 4.6 mph - N/A   Clear
3:46 AM 37.4 °F 33.8 °F 37.4 °F 100% 30.08 in 1.5 mi WNW 4.6 mph - N/A   Clear
3:48 AM 37.4 °F 33.8 °F 37.4 °F 100% 30.08 in 1.8 mi WNW 4.6 mph - N/A   Clear
3:49 AM 37.4 °F 33.8 °F 37.4 °F 100% 30.08 in 2.0 mi WNW 4.6 mph - N/A   Clear
3:50 AM 37.4 °F 33.8 °F 37.4 °F 100% 30.08 in 2.5 mi WNW 4.6 mph - N/A   Clear
3:51 AM 37.4 °F 33.8 °F 37.4 °F 100% 30.08 in 4.0 mi WNW 4.6 mph - N/A   Clear
3:55 AM 37.6 °F 34.0 °F 37.0 °F 98% 30.08 in 10.0 mi WNW 4.6 mph - N/A   Clear
4:55 AM 37.4 °F - 37.0 °F 99% 30.11 in 10.0 mi Calm Calm - N/A   Clear
5:55 AM 35.8 °F 30.9 °F 35.2 °F 98% 30.15 in 10.0 mi WNW 5.8 mph - N/A   Clear
6:55 AM 34.7 °F - 34.3 °F 99% 30.20 in 10.0 mi Calm Calm - N/A   Clear
7:55 AM 32.9 °F - 32.4 °F 98% 30.23 in 10.0 mi Calm Calm - N/A   Clear
8:55 AM 36.0 °F 33.3 °F 35.4 °F 98% 30.24 in 10.0 mi NNW 3.5 mph - N/A   Clear
9:55 AM 40.3 °F - 37.4 °F 89% 30.27 in 10.0 mi Calm Calm - N/A   Partly Cloudy
10:55 AM 41.9 °F - 37.4 °F 84% 30.26 in 10.0 mi Calm Calm - N/A   Clear
11:55 AM 42.4 °F 40.7 °F 36.1 °F 78% 30.25 in 10.0 mi North 3.5 mph - N/A   Clear
12:55 PM 43.2 °F 40.5 °F 35.1 °F 73% 30.24 in 10.0 mi NNW 4.6 mph - N/A   Clear
1:55 PM 43.3 °F 40.7 °F 33.6 °F 69% 30.24 in 10.0 mi North 4.6 mph - N/A   Clear
2:55 PM 43.5 °F - 32.2 °F 64% 30.25 in 10.0 mi Calm Calm - N/A   Mostly Cloudy
3:55 PM 42.1 °F - 32.5 °F 69% 30.25 in 10.0 mi Calm Calm - N/A   Overcast
4:55 PM 39.7 °F - 34.7 °F 82% 30.26 in 10.0 mi Calm Calm - N/A   Overcast
5:55 PM 39.6 °F - 35.4 °F 85% 30.27 in 10.0 mi Calm Calm - N/A   Mostly Cloudy
6:48 PM 39.2 °F - 35.6 °F 87% 30.26 in 10.0 mi Calm Calm - N/A   Mostly Cloudy
6:55 PM 40.1 °F - 34.5 °F 80% 30.26 in 10.0 mi Calm Calm - 0.00 in   Mostly Cloudy
7:55 PM 41.0 °F - 33.6 °F 75% 30.25 in 10.0 mi Calm Calm - 0.00 in   Overcast
8:10 PM 41.0 °F - 33.8 °F 76% 30.23 in 10.0 mi Calm Calm - N/A   Overcast
8:55 PM 39.0 °F - 34.7 °F 84% 30.22 in 10.0 mi Calm Calm - 0.02 in Rain Light Rain
9:45 PM 37.4 °F 33.8 °F 35.6 °F 93% 30.20 in 10.0 mi NE 4.6 mph - N/A   Overcast
9:49 PM 37.4 °F 33.8 °F 35.6 °F 93% 30.19 in 10.0 mi NE 4.6 mph - N/A   Overcast
9:55 PM 37.4 °F 34.9 °F 36.7 °F 97% 30.19 in 9.0 mi NE 3.5 mph - 0.04 in   Overcast
9:57 PM 37.4 °F 34.9 °F 37.4 °F 100% 30.19 in 8.0 mi NE 3.5 mph - N/A Rain Light Rain
9:58 PM 37.4 °F 34.9 °F 37.4 °F 100% 30.19 in 8.0 mi NE 3.5 mph - N/A Rain Light Rain
10:44 PM 37.4 °F 34.9 °F 37.4 °F 100% 30.18 in 10.0 mi NNE 3.5 mph - N/A   Overcast
10:45 PM 37.4 °F 34.9 °F 37.4 °F 100% 30.18 in 10.0 mi NNE 3.5 mph - N/A   Overcast
10:49 PM 37.4 °F 33.8 °F 37.4 °F 100% 30.17 in 10.0 mi NE 4.6 mph - N/A   Overcast
10:55 PM 37.9 °F 34.4 °F 37.2 °F 97% 30.16 in 7.0 mi NE 4.6 mph - 0.06 in   Overcast
10:58 PM 37.4 °F 33.8 °F 37.4 °F 100% 30.16 in 6.0 mi NNE 4.6 mph - N/A Rain Light Rain
11:55 PM 37.9 °F 34.4 °F 37.4 °F 98% 30.12 in 5.0 mi North 4.6 mph - 0.08 in Rain Light Rain